SES-5 (EGNOS/PRN 136)

Last updated on Sun Jun 21 2026 00:03:34 GMT+0000 (Coordinated Universal Time)

1 38652U 12036A 26171.10782341 .00000029 00000+0 00000+0 0 9998 2 38652 0.0456 317.0080 0001850 132.7689 222.3295 1.00272034 44484
UTC large
Height (km)
Speed (km/s)
/
Latitude / Longitude
Inclination (degrees)
Orbital Period (minutes)
Azimuth
Elevation
Range (km)
Doppler Factor

Next 0 passes for location: London (51.5072 / 0.1276)

No passes found over London.
SES-5 (EGNOS/PRN 136)